Weather History for Coral Harbour, NU

Change the Weather History Date:

Thursday, October 4, 2012

  Actual Average Record
Temperature  
Mean Temperature 24 °F -  
Max Temperature 30 °F 23 °F 35 °F (1997)
Min Temperature 17 °F 9 °F 15 °F (1996)
Degree Days  
Heating Degree Days 40    
Moisture  
Dew Point 18 °F    
Average Humidity 76    
Maximum Humidity 93    
Minimum Humidity 46    
Precipitation  
Precipitation 0.00 in 0.04 in - ()
Sea Level Pressure  
Sea Level Pressure 30.34 in    
Wind  
Wind Speed 9 mph ()    
Max Wind Speed 17 mph    
Max Gust Speed 23 mph    
Visibility 15.0 miles    
Events Snow    
Averages and records for this station are not official NWS values.
T = Trace of Precipitation, MM = Missing Value Source: Averaged Metar Reports

Daily Weather History Graph

Daily Weather History Graph

Search for Another Location

Airport:

Trip Planner

Search our weather history database for the weather conditions in past years. The results will help you decide how hot, cold, wet, or windy it might be!

Date:

Astronomy

Oct. 04, 2012 Rise Set
Actual Time 7:52 AM EDT 6:49 PM EDT
Civil Twilight 7:04 AM EDT 7:37 PM EDT
Nautical Twilight 6:09 AM EDT 8:32 PM EDT
Astronomical Twilight 5:09 AM EDT 9:31 PM EDT
Moon 7:33 PM EDT (10/4) 1:58 PM EDT (10/4)
Length of Visible Light 12h 32m
Length of Day
10h 57m
Waning Gibbous, 82% of the Moon is Illuminated
Oct 4
Waning Gibbous
Oct 8
Last Quarter
Oct 15
New
Oct 21
First Quarter
Oct 29
Full

Hourly Weather History & Observations

Time (EDT) Temp. Windchill Dew Point Humidity Pressure Visibility Wind Dir Wind Speed Gust Speed Precip Events Conditions
12:00 AM 26.6 °F 16.2 °F 21.2 °F 80% 30.27 in 15.0 mi WNW 11.5 mph - N/A Snow Light Snow
12:50 AM - - - N/A% - 15.0 mi West 8.1 mph - N/A   Partly Cloudy
1:00 AM 24.8 °F 17.9 °F 19.4 °F 80% 30.29 in 15.0 mi West 5.8 mph - N/A   Partly Cloudy
2:00 AM 26 °F - 20 °F 71% 30.30 in 15 mi West 9.2 mph - -   Partly Cloudy
2:00 AM 24.8 °F 15.3 °F 21.2 °F 86% 30.30 in 15.0 mi West 9.2 mph - N/A   Partly Cloudy
3:00 AM 24.8 °F 12.9 °F 19.4 °F 80% 30.32 in 15.0 mi WNW 13.8 mph - N/A   Partly Cloudy
4:00 AM 23.0 °F 12.4 °F 19.4 °F 86% 30.33 in 15.0 mi WNW 10.4 mph - N/A   Partly Cloudy
5:00 AM 23.0 °F 18.4 °F 17.6 °F 80% 30.34 in 15.0 mi NW 3.5 mph - N/A   Partly Cloudy
6:00 AM 21.2 °F 12.6 °F 17.6 °F 86% 30.35 in 15.0 mi WSW 6.9 mph - N/A   Partly Cloudy
7:00 AM 21.2 °F 11.7 °F 17.6 °F 86% 30.35 in 15.0 mi WNW 8.1 mph - N/A   Partly Cloudy
8:00 AM 22 °F - 18 °F 76% 30.36 in 15 mi WNW 9.2 mph - -   Scattered Clouds
8:00 AM 21.2 °F 10.9 °F 17.6 °F 86% 30.36 in 15.0 mi WNW 9.2 mph - N/A   Partly Cloudy
9:00 AM 23.0 °F 11.7 °F 19.4 °F 86% 30.37 in 15.0 mi NW 11.5 mph - N/A   Partly Cloudy
10:00 AM 24.8 °F 16.9 °F 19.4 °F 80% 30.38 in 15.0 mi West 6.9 mph - N/A   Partly Cloudy
11:00 AM 26.6 °F 15.2 °F 19.4 °F 74% 30.36 in 15.0 mi WNW 13.8 mph - N/A   Partly Cloudy
12:00 PM 26.6 °F 13.8 °F 17.6 °F 69% 30.37 in 15.0 mi NW 17.3 mph - N/A   Scattered Clouds
1:00 PM 28.4 °F 16.6 °F 17.6 °F 64% 30.37 in 15.0 mi WNW 16.1 mph - N/A   Mostly Cloudy
2:00 PM 29 °F - 16 °F 46% 30.13 in 15 mi NW 17.3 mph - -   Mostly Cloudy
2:00 PM 28.4 °F 16.2 °F 15.8 °F 59% 30.37 in 15.0 mi NW 17.3 mph 23.0 mph N/A   Mostly Cloudy
2:23 PM - - - N/A% - 15.0 mi WNW 11.5 mph 17.3 mph N/A   Unknown
3:00 PM 28.4 °F 18.5 °F 21.2 °F 74% 30.37 in 15.0 mi NW 11.5 mph - N/A Snow Light Snow
4:00 PM 30.2 °F 19.8 °F 19.4 °F 64% 30.36 in 15.0 mi NW 13.8 mph - N/A Snow Light Snow
5:00 PM 28.4 °F 18.5 °F 21.2 °F 74% 30.36 in 15.0 mi WNW 11.5 mph - N/A Snow Light Snow
6:00 PM 28.4 °F 18.5 °F 17.6 °F 64% 30.35 in 15.0 mi NW 11.5 mph - N/A   Mostly Cloudy
7:00 PM 26.6 °F 20.0 °F 17.6 °F 69% 30.36 in 15.0 mi NNW 5.8 mph - N/A   Mostly Cloudy
8:00 PM 22 °F - 18 °F 76% 30.36 in 15 mi NNW 2.3 mph - -   Partly Cloudy
8:00 PM 23.0 °F - 17.6 °F 80% 30.36 in 15.0 mi NNW 2.3 mph - N/A   Mostly Cloudy
9:00 PM 19.4 °F 14.3 °F 15.8 °F 86% 30.35 in 15.0 mi NNW 3.5 mph - N/A   Partly Cloudy
10:00 PM 19.4 °F - 15.8 °F 86% 30.35 in 15.0 mi Calm Calm - N/A   Partly Cloudy
11:00 PM 17.6 °F 12.3 °F 15.8 °F 93% 30.34 in 15.0 mi NW 3.5 mph - N/A   Partly Cloudy